FW4683 Weather Reports


Display with metric or nautical units.
time (UTC)temp
F
wind
direction
speed
MPH
gust
MPH
rain 1hr
in
rain 24hr
in
rain mn
in
humidity
%
barometer
mb
20260901110037 69 96 0.0 1.0 0.00 0.00 0.00 94 1019.1
20260901105036 68 96 0.0 0.0 0.00 0.00 0.00 95 1018.9
20260901104545 68 96 0.0 0.0 0.00 0.00 0.00 95 1018.9
20260901104037 68 96 0.0 0.0 0.00 0.00 0.00 95 1018.9
20260901103536 68 96 0.0 1.0 0.00 0.00 0.00 95 1018.9
20260901103036 68 96 0.0 1.0 0.00 0.00 0.00 95 1018.9
20260901102536 68 96 0.0 0.0 0.00 0.00 0.00 95 1018.9
20260901102037 68 96 0.0 0.0 0.00 0.00 0.00 95 1019.0
20260901101544 68 96 0.0 1.0 0.00 0.00 0.00 95 1018.9
20260901101035 68 96 0.0 2.0 0.00 0.00 0.00 95 1018.9
20260901100537 68 96 0.0 3.0 0.00 0.00 0.00 95 1019.0
20260901100035 68 96 0.0 2.0 0.00 0.00 0.00 95 1018.9
20260901095035 68 96 0.0 1.0 0.00 0.00 0.00 95 1018.9
20260901094538 68 96 0.0 1.0 0.00 0.00 0.00 95 1018.9
20260901094031 68 96 0.0 2.0 0.00 0.00 0.00 95 1018.7
20260901093531 68 96 0.0 2.0 0.00 0.00 0.00 95 1018.7
20260901093034 68 96 0.0 2.0 0.00 0.00 0.00 95 1018.7
20260901092531 68 96 0.0 2.0 0.00 0.00 0.00 95 1018.7
20260901092035 68 96 0.0 2.0 0.00 0.00 0.00 95 1018.7
20260901091531 69 96 0.0 2.0 0.00 0.00 0.00 94 1018.6
20260901091029 69 96 0.0 1.0 0.00 0.00 0.00 94 1018.6
20260901090530 69 96 0.0 2.0 0.00 0.00 0.00 94 1018.7
20260901090031 69 96 0.0 2.0 0.00 0.00 0.00 94 1018.7
20260901085028 69 95 0.0 3.0 0.00 0.00 0.00 94 1018.7
20260901084528 69 96 1.0 3.0 0.00 0.00 0.00 94 1018.8
20260901084028 70 96 0.0 1.0 0.00 0.00 0.00 93 1018.9
20260901083532 70 96 0.0 1.0 0.00 0.00 0.00 94 1018.9
20260901083027 69 96 0.0 1.0 0.00 0.00 0.00 95 1019.0
20260901082526 69 96 0.0 1.0 0.00 0.00 0.00 95 1019.1
20260901082027 69 96 0.0 2.0 0.00 0.00 0.00 95 1019.1
20260901081525 69 96 0.0 2.0 0.00 0.00 0.00 95 1019.0
20260901081025 69 96 0.0 0.0 0.00 0.00 0.00 95 1019.1
20260901080525 69 96 0.0 1.0 0.00 0.00 0.00 95 1019.1
20260901080031 69 96 0.0 1.0 0.00 0.00 0.00 95 1019.0
20260901075031 69 96 0.0 1.0 0.00 0.00 0.00 95 1019.1
20260901074524 70 96 0.0 1.0 0.00 0.00 0.00 94 1019.1
20260901074027 70 96 0.0 0.0 0.00 0.00 0.00 94 1019.1
20260901073529 70 96 0.0 1.0 0.00 0.00 0.00 94 1019.1
20260901073024 70 96 0.0 1.0 0.00 0.00 0.00 94 1019.2
20260901072524 70 96 0.0 0.0 0.00 0.00 0.00 94 1019.2
20260901072027 70 96 0.0 1.0 0.00 0.00 0.00 94 1019.2
20260901071524 70 96 0.0 1.0 0.00 0.00 0.00 95 1019.3
20260901071023 70 96 0.0 1.0 0.00 0.00 0.00 94 1019.4
20260901070522 70 96 0.0 2.0 0.00 0.00 0.00 94 1019.3
20260901070022 70 96 0.0 2.0 0.00 0.00 0.00 94 1019.3
20260901065022 70 96 2.0 4.0 0.00 0.00 0.00 94 1019.2
20260901064524 70 96 0.0 1.0 0.00 0.00 0.00 94 1019.2
20260901064021 70 96 0.0 1.0 0.00 0.00 0.00 94 1019.2
20260901063520 70 96 0.0 1.0 0.00 0.00 0.00 94 1019.3
20260901063020 70 96 0.0 1.0 0.00 0.00 0.00 94 1019.3
20260901062519 70 96 0.0 1.0 0.00 0.00 0.00 94 1019.2
20260901062020 70 96 0.0 1.0 0.00 0.00 0.00 94 1019.3
20260901061518 70 96 0.0 1.0 0.00 0.00 0.00 94 1019.4
20260901061018 70 96 0.0 1.0 0.00 0.00 0.00 94 1019.4
20260901060518 70 96 0.0 3.0 0.00 0.00 0.00 94 1019.5
20260901060017 71 96 1.0 4.0 0.00 0.00 0.00 94 1019.5
20260901055024 71 96 0.0 2.0 0.00 0.00 0.00 94 1019.5
20260901054520 71 96 0.0 2.0 0.00 0.00 0.00 94 1019.6
20260901054017 71 96 0.0 2.0 0.00 0.00 0.00 94 1019.6
20260901053518 71 96 0.0 3.0 0.00 0.00 0.00 94 1019.7
20260901053016 71 96 0.0 3.0 0.00 0.00 0.00 94 1019.6
20260901052515 71 96 0.0 3.0 0.00 0.00 0.00 94 1019.8
20260901052018 71 96 0.0 1.0 0.00 0.00 0.00 93 1019.7
20260901051514 71 96 0.0 2.0 0.00 0.00 0.00 93 1019.7
20260901051016 71 96 0.0 2.0 0.00 0.00 0.00 94 1019.7
20260901050514 71 96 0.0 2.0 0.00 0.00 0.00 94 1019.8
20260901050015 71 96 0.0 2.0 0.00 0.00 0.00 94 1019.8
20260901045015 71 96 0.0 3.0 0.00 0.00 0.00 93 1019.7
20260901044512 71 96 0.0 3.0 0.00 0.00 0.00 93 1019.5
20260901044012 71 96 0.0 4.0 0.00 0.00 0.00 93 1019.6
20260901043511 71 96 1.0 4.0 0.00 0.00 0.00 93 1019.6
20260901043015 72 96 1.0 4.0 0.00 0.00 0.00 93 1019.5
20260901042512 72 96 1.0 4.0 0.00 0.00 0.00 92 1019.5
20260901042010 72 96 1.0 4.0 0.00 0.00 0.00 92 1019.5
20260901041510 72 96 3.0 4.0 0.00 0.00 0.00 93 1019.6
20260901041011 72 96 0.0 3.0 0.00 0.00 0.00 93 1019.6
20260901040511 72 96 0.0 1.0 0.00 0.00 0.00 93 1019.5
20260901040010 72 96 0.0 1.0 0.00 0.00 0.00 92 1019.5
20260901035015 72 96 0.0 0.0 0.00 0.00 0.00 91 1019.4
20260901034510 72 96 0.0 1.0 0.00 0.00 0.00 92 1019.5
20260901034014 72 96 0.0 1.0 0.00 0.00 0.00 92 1019.4
20260901033510 72 96 0.0 0.0 0.00 0.00 0.00 93 1019.3
20260901033011 72 96 0.0 0.0 0.00 0.00 0.00 93 1019.3
20260901032511 72 96 0.0 0.0 0.00 0.00 0.00 94 1019.2
20260901032010 72 96 0.0 0.0 0.00 0.00 0.00 94 1019.2
20260901031518 73 96 0.0 0.0 0.00 0.00 0.00 94 1019.4
20260901031012 73 96 0.0 0.0 0.00 0.00 0.00 93 1019.4
20260901030511 73 95 0.0 0.0 0.00 0.00 0.00 93 1019.4
20260901030009 73 96 0.0 0.0 0.00 0.00 0.00 93 1019.3
20260901025012 73 96 0.0 0.0 0.00 0.00 0.00 93 1019.3
20260901024510 73 95 0.0 1.0 0.00 0.00 0.00 93 1019.4
20260901024008 73 96 0.0 2.0 0.00 0.00 0.00 94 1019.3
20260901023508 73 96 0.0 3.0 0.00 0.00 0.00 93 1019.3
20260901023020 73 96 0.0 4.0 0.00 0.00 0.00 94 1019.4
20260901022512 73 96 0.0 4.0 0.00 0.00 0.00 94 1019.4
20260901022008 74 96 0.0 4.0 0.00 0.00 0.00 94 1019.3
20260901021515 74 96 0.0 3.0 0.00 0.00 0.00 93 1019.2
20260901021012 74 96 1.0 3.0 0.00 0.00 0.00 93 1019.2
20260901020509 74 96 2.0 3.0 0.00 0.00 0.00 92 1019.2
20260901020022 74 96 0.0 3.0 0.00 0.00 0.00 92 1019.2
20260901015010 75 96 0.0 1.0 0.00 0.00 0.00 91 1019.0
20260901014511 75 96 0.0 3.0 0.00 0.00 0.00 91 1019.1
20260901014008 74 96 0.0 3.0 0.00 0.00 0.00 92 1019.0
20260901013513 75 96 1.0 3.0 0.00 0.00 0.00 92 1019.0
20260901013023 75 96 0.0 3.0 0.00 0.00 0.00 93 1019.0
20260901012507 75 96 0.0 2.0 0.00 0.00 0.00 93 1019.0
20260901012009 75 96 0.0 3.0 0.00 0.00 0.00 93 1018.8
20260901011514 75 96 0.0 3.0 0.00 0.00 0.00 93 1018.8
20260901011009 75 96 0.0 2.0 0.00 0.00 0.00 92 1018.7
20260901010507 76 96 0.0 2.0 0.00 0.00 0.00 92 1018.5
20260901010008 76 96 0.0 3.0 0.00 0.00 0.00 92 1018.6
20260901005007 76 96 0.0 3.0 0.00 0.00 0.00 91 1018.6
20260901004508 76 96 0.0 2.0 0.00 0.00 0.00 91 1018.4
20260901004006 76 95 0.0 1.0 0.00 0.00 0.00 91 1018.3
20260901003508 76 96 0.0 1.0 0.00 0.00 0.00 90 1018.3
20260901003008 77 96 0.0 1.0 0.00 0.00 0.00 90 1018.2
20260901002507 77 96 0.0 2.0 0.00 0.00 0.00 90 1018.3
20260901002007 77 96 0.0 2.0 0.00 0.00 0.00 89 1018.3
20260901001511 77 96 0.0 1.0 0.00 0.00 0.00 89 1018.2
20260901001006 77 96 0.0 1.0 0.00 0.00 0.00 89 1018.3
20260901000506 78 96 0.0 1.0 0.00 0.00 0.00 88 1018.3
20260901000008 78 96 0.0 1.0 0.00 0.00 0.00 88 1018.4
20260831235005 78 96 0.0 2.0 0.00 0.00 0.00 88 1018.3
20260831234507 78 96 0.0 2.0 0.00 0.00 0.00 87 1018.4
20260831234004 79 96 0.0 2.0 0.00 0.00 0.00 87 1018.2
20260831233504 79 95 0.0 1.0 0.00 0.00 0.00 87 1018.3
20260831233007 79 96 0.0 1.0 0.00 0.00 0.00 86 1018.3
20260831232504 79 96 0.0 1.0 0.00 0.00 0.00 85 1018.4
20260831232004 80 96 0.0 1.0 0.00 0.00 0.00 84 1018.5
20260831231504 81 96 0.0 1.0 0.00 0.00 0.00 84 1018.4
20260831231004 80 96 0.0 1.0 0.00 0.00 0.00 85 1018.4
20260831230503 80 96 0.0 1.0 0.00 0.00 0.00 83 1018.4
20260831230006 80 96 0.0 3.0 0.00 0.00 0.00 82 1018.4
20260831225005 80 96 0.0 3.0 0.00 0.00 0.00 82 1018.3
20260831224506 81 96 0.0 3.0 0.00 0.00 0.00 82 1018.2
20260831224003 81 96 0.0 3.0 0.00 0.00 0.00 80 1018.2
20260831223503 81 96 0.0 4.0 0.00 0.00 0.00 81 1018.3
20260831223003 81 96 0.0 4.0 0.00 0.00 0.00 81 1018.3
20260831222501 81 96 0.0 4.0 0.00 0.00 0.00 81 1018.4
20260831222002 81 96 1.0 7.0 0.00 0.00 0.00 80 1018.4
20260831221604 81 96 5.0 7.0 0.00 0.00 0.00 79 1018.5
20260831221502 81 96 4.0 7.0 0.00 0.00 0.00 78 1018.5
20260831221101 81 96 1.0 7.0 0.00 0.00 0.00 79 1018.5
20260831220600 81 96 3.0 7.0 0.00 0.00 0.00 79 1018.7
20260831220101 81 96 3.0 9.0 0.00 0.00 0.00 80 1018.6
20260831215001 80 96 5.0 9.0 0.00 0.00 0.00 80 1018.8
20260831214501 80 96 4.0 8.0 0.00 0.00 0.00 81 1018.7
20260831214000 79 96 4.0 9.0 0.00 0.00 0.00 81 1018.8
20260831213502 79 96 4.0 10.0 0.00 0.00 0.00 82 1018.8
20260831213003 78 96 4.0 10.0 0.00 0.00 0.00 83 1018.9
20260831212502 78 96 4.0 9.0 0.00 0.00 0.00 84 1018.9
20260831212100 78 96 5.0 9.0 0.00 0.00 0.00 84 1018.8
20260831211502 77 96 5.0 11.0 0.00 0.00 0.00 85 1018.7
20260831211100 77 96 7.0 11.0 0.00 0.00 0.00 85 1018.7
20260831210559 77 96 5.0 8.0 0.00 0.00 0.00 85 1018.8
20260831210114 76 96 5.0 8.0 0.00 0.00 0.00 87 1018.8
20260831205059 76 96 2.0 7.0 0.00 0.00 0.00 86 1019.0
20260831204559 76 96 2.0 7.0 0.00 0.00 0.00 87 1019.0
20260831204058 76 96 1.0 7.0 0.00 0.00 0.00 87 1019.1
20260831203558 76 96 2.0 11.0 0.00 0.00 0.00 87 1019.2
20260831203104 76 96 3.0 11.0 0.00 0.00 0.00 87 1019.3
20260831202557 76 96 1.0 10.0 0.00 0.00 0.00 87 1019.4
20260831202057 76 96 6.0 10.0 0.00 0.00 0.00 87 1019.4
20260831201601 76 96 2.0 12.0 0.00 0.00 0.00 87 1019.5
20260831201057 75 96 6.0 12.0 0.00 0.00 0.00 87 1019.4
20260831200557 76 96 3.0 8.0 0.00 0.00 0.00 87 1019.3
20260831200057 76 96 2.0 7.0 0.00 0.00 0.00 86 1019.2
20260831195102 77 96 7.0 12.0 0.00 0.00 0.00 84 1019.3
20260831194624 78 96 1.0 9.0 0.00 0.00 0.00 82 1019.2
20260831194100 78 96 0.0 6.0 0.00 0.00 0.00 82 1019.1
20260831193600 77 96 0.0 8.0 0.00 0.00 0.00 80 1019.2
20260831193100 76 96 3.0 10.0 0.00 0.00 0.00 81 1019.3
20260831192559 76 96 4.0 10.0 0.00 0.00 0.00 83 1019.4
20260831192058 76 96 3.0 13.0 0.00 0.00 0.00 83 1019.6
20260831191604 78 96 7.0 18.0 0.00 0.00 0.00 80 1019.7
20260831191058 79 96 10.0 20.0 0.00 0.00 0.00 76 1019.6
20260831190559 80 96 10.0 20.0 0.00 0.00 0.00 72 1019.5
20260831190108 83 96 9.0 18.0 0.00 0.00 0.00 70 1019.4
20260831185053 88 96 7.0 17.0 0.00 0.00 0.00 67 1019.2
20260831184557 89 96 4.0 10.0 0.00 0.00 0.00 61 1019.0
20260831184054 90 96 2.0 9.0 0.00 0.00 0.00 59 1019.0
20260831183552 90 96 2.0 9.0 0.00 0.00 0.00 59 1019.1
20260831183152 91 96 2.0 10.0 0.00 0.00 0.00 59 1019.1
20260831182050 90 96 3.0 8.0 0.00 0.00 0.00 60 1019.2
20260831181554 91 96 3.0 8.0 0.00 0.00 0.00 59 1019.3
20260831181049 91 96 1.0 7.0 0.00 0.00 0.00 57 1019.2
20260831180548 90 96 2.0 7.0 0.00 0.00 0.00 59 1019.3
20260831180047 89 96 3.0 9.0 0.00 0.00 0.00 62 1019.3
20260831175048 88 96 2.0 9.0 0.00 0.00 0.00 62 1019.5
20260831174552 89 96 3.0 9.0 0.00 0.00 0.00 60 1019.6
20260831174052 89 96 5.0 9.0 0.00 0.00 0.00 61 1019.5
20260831173649 88 96 2.0 9.0 0.00 0.00 0.00 61 1019.5
20260831173110 89 96 4.0 7.0 0.00 0.00 0.00 61 1019.6
20260831172547 89 96 4.0 8.0 0.00 0.00 0.00 61 1019.7
20260831172046 90 96 1.0 7.0 0.00 0.00 0.00 60 1019.8
20260831171547 90 96 1.0 7.0 0.00 0.00 0.00 60 1019.8
20260831171046 90 96 1.0 8.0 0.00 0.00 0.00 58 1019.8
20260831170546 91 96 2.0 7.0 0.00 0.00 0.00 58 1019.9
20260831170046 91 96 1.0 4.0 0.00 0.00 0.00 58 1019.9
20260831165043 89 96 1.0 7.0 0.00 0.00 0.00 58 1019.9
20260831164556 89 96 1.0 7.0 0.00 0.00 0.00 55 1019.9
20260831164043 89 96 0.0 7.0 0.00 0.00 0.00 57 1020.0
20260831163541 88 96 1.0 7.0 0.00 0.00 0.00 59 1020.1
20260831163041 88 96 1.0 6.0 0.00 0.00 0.00 61 1020.1
20260831162542 88 96 3.0 6.0 0.00 0.00 0.00 61 1020.2
20260831162043 88 96 0.0 4.0 0.00 0.00 0.00 62 1020.2
20260831161538 88 96 0.0 4.0 0.00 0.00 0.00 63 1020.3
20260831161038 88 96 1.0 4.0 0.00 0.00 0.00 65 1020.3
20260831160538 87 96 0.0 4.0 0.00 0.00 0.00 66 1020.4
20260831160037 86 96 0.0 3.0 0.00 0.00 0.00 68 1020.3
20260831155038 85 96 0.0 4.0 0.00 0.00 0.00 69 1020.3
20260831154537 85 96 1.0 4.0 0.00 0.00 0.00 70 1020.3
20260831154034 84 96 0.0 4.0 0.00 0.00 0.00 71 1020.4
20260831153534 84 96 1.0 4.0 0.00 0.00 0.00 72 1020.4
20260831153041 84 96 1.0 3.0 0.00 0.00 0.00 71 1020.5
20260831152533 84 96 0.0 6.0 0.00 0.00 0.00 72 1020.5
20260831152033 83 96 0.0 6.0 0.00 0.00 0.00 72 1020.5
20260831151532 83 96 1.0 4.0 0.00 0.00 0.00 73 1020.5
20260831151031 82 96 0.0 3.0 0.00 0.00 0.00 73 1020.5
20260831150530 82 96 0.0 3.0 0.00 0.00 0.00 73 1020.6
20260831150034 82 96 0.0 2.0 0.00 0.00 0.00 73 1020.6
20260831145033 80 96 0.0 4.0 0.00 0.00 0.00 75 1020.7
20260831144526 80 96 0.0 6.0 0.00 0.00 0.00 76 1020.7
20260831144026 79 96 0.0 6.0 0.00 0.00 0.00 77 1020.7
20260831143525 79 96 0.0 4.0 0.00 0.00 0.00 77 1020.7
20260831143024 78 96 1.0 6.0 0.00 0.00 0.00 78 1020.7
20260831142523 78 96 2.0 6.0 0.00 0.00 0.00 79 1020.7
20260831142023 78 96 2.0 6.0 0.00 0.00 0.00 79 1020.6
20260831141521 77 96 2.0 6.0 0.00 0.00 0.00 79 1020.6
20260831141019 77 96 1.0 7.0 0.00 0.00 0.00 79 1020.6
20260831140519 77 96 4.0 7.0 0.00 0.00 0.00 79 1020.6
20260831140018 76 96 0.0 4.0 0.00 0.00 0.00 80 1020.7
20260831135017 76 96 0.0 4.0 0.00 0.00 0.00 81 1020.6
20260831134519 75 96 1.0 7.0 0.00 0.00 0.00 83 1020.6
20260831134014 75 96 3.0 7.0 0.00 0.00 0.00 83 1020.7
20260831133513 74 96 2.0 7.0 0.00 0.00 0.00 85 1020.8
20260831133023 74 96 2.0 7.0 0.00 0.00 0.00 86 1020.8
20260831132513 74 96 0.0 7.0 0.00 0.00 0.00 87 1020.7
20260831132010 73 96 1.0 6.0 0.00 0.00 0.00 87 1020.8
20260831131509 73 96 2.0 6.0 0.00 0.00 0.00 89 1020.8
20260831131008 73 96 1.0 4.0 0.00 0.00 0.00 88 1020.8
20260831130506 72 96 0.0 4.0 0.00 0.00 0.00 89 1020.8
20260831130007 72 96 1.0 6.0 0.00 0.00 0.00 89 1020.8
20260831125010 72 96 0.0 1.0 0.00 0.00 0.00 90 1020.8
20260831124528 71 96 0.0 1.0 0.00 0.00 0.00 90 1020.8
20260831124011 71 96 0.0 1.0 0.00 0.00 0.00 90 1020.7
20260831123506 71 96 0.0 2.0 0.00 0.00 0.00 90 1020.6
20260831123005 70 96 0.0 2.0 0.00 0.00 0.00 93 1020.5
20260831122507 70 96 0.0 3.0 0.00 0.00 0.00 93 1020.5
20260831122005 69 96 0.0 4.0 0.00 0.00 0.00 93 1020.5
20260831121505 69 96 2.0 4.0 0.00 0.00 0.00 93 1020.5
20260831121005 69 96 0.0 6.0 0.00 0.00 0.00 94 1020.4
20260831120505 69 96 1.0 6.0 0.00 0.00 0.00 95 1020.5
20260831120008 68 96 1.0 4.0 0.00 0.00 0.00 95 1020.5
20260831115003 68 96 0.0 3.0 0.00 0.00 0.00 95 1020.4
20260831114503 68 96 1.0 3.0 0.00 0.00 0.00 95 1020.5
20260831114004 68 96 0.0 3.0 0.00 0.00 0.00 96 1020.5
20260831113502 68 96 0.0 1.0 0.00 0.00 0.00 96 1020.5
20260831113005 67 96 0.0 1.0 0.00 0.00 0.00 96 1020.5
20260831112500 67 96 0.0 0.0 0.00 0.00 0.00 96 1020.5
20260831112000 67 96 0.0 0.0 0.00 0.00 0.00 96 1020.3
20260831111622 67 96 0.0 3.0 0.00 0.00 0.00 96 1020.2
20260831111101 68 96 1.0 3.0 0.00 0.00 0.00 96 1020.2
20260831110602 68 96 0.0 2.0 0.00 0.00 0.00 96 1020.2
20260831110100 68 96 0.0 2.0 0.00 0.00 0.00 96 1020.2